Weather History for Gwinn, MI

Change the Weather History Date:

Wednesday, February 13, 2013

  Actual Average (KESC) Record (KESC)
Temperature  
Mean Temperature 24 °F -  
Max Temperature 35 °F 27 °F 42 °F (1984)
Min Temperature 14 °F 8 °F -20 °F (1997)
Degree Days  
Heating Degree Days 40    
Moisture  
Dew Point 19 °F    
Average Humidity 87    
Maximum Humidity 95    
Minimum Humidity 65    
Precipitation  
Precipitation 0.00 in - - ()
Sea Level Pressure  
Sea Level Pressure 29.62 in    
Wind  
Wind Speed 6 mph (South)    
Max Wind Speed 9 mph    
Max Gust Speed -    
Visibility 10 miles    
Events      
Averages and records for this station are not official NWS values.
T = Trace of Precipitation, MM = Missing Value Source: NWS Daily Summary

Daily Weather History Graph

Daily Weather History Graph

Search for Another Location

Airport:

Trip Planner

Search our weather history database for the weather conditions in past years. The results will help you decide how hot, cold, wet, or windy it might be!

Date:

Astronomy

Feb. 13, 2013 Rise Set
Actual Time 7:55 AM EST 6:12 PM EST
Civil Twilight 7:24 AM EST 6:43 PM EST
Nautical Twilight 6:49 AM EST 7:19 PM EST
Astronomical Twilight 6:14 AM EST 7:53 PM EST
Moon 9:08 AM EST (2/13) 10:33 PM EST (2/13)
Length of Visible Light 11h 19m
Length of Day
10h 17m
Waxing Crescent, 13% of the Moon is Illuminated
Feb 13
Waxing Crescent
Feb 17
First Quarter
Feb 25
Full
Mar 4
Last Quarter
Mar 11
New

Hourly Weather History & Observations

Time (EST) Temp. Windchill Dew Point Humidity Pressure Visibility Wind Dir Wind Speed Gust Speed Precip Events Conditions
12:17 AM 18.0 °F 9.8 °F 15.6 °F 91% 29.70 in 10.0 mi SSW 5.8 mph - N/A   Clear
12:37 AM 19.8 °F 10.8 °F 16.9 °F 89% 29.69 in 10.0 mi South 6.9 mph - N/A   Clear
12:56 AM 19.4 °F 10.4 °F 16.5 °F 89% 29.69 in 10.0 mi South 6.9 mph - N/A   Clear
1:17 AM 17.6 °F 6.4 °F 15.4 °F 91% 29.68 in 10.0 mi South 9.2 mph - N/A   Clear
1:36 AM 17.6 °F 6.4 °F 15.4 °F 91% 29.68 in 10.0 mi South 9.2 mph - N/A   Clear
1:57 AM 17.2 °F 6.8 °F 14.7 °F 90% 29.67 in 10.0 mi South 8.1 mph - N/A   Clear
2:17 AM 16.7 °F 5.3 °F 14.2 °F 90% 29.67 in 10.0 mi South 9.2 mph - N/A   Clear
2:36 AM 16.7 °F 5.3 °F 14.4 °F 91% 29.66 in 10.0 mi South 9.2 mph - N/A   Mostly Cloudy
2:57 AM 17.1 °F 5.8 °F 14.7 °F 91% 29.65 in 10.0 mi South 9.2 mph - N/A   Mostly Cloudy
3:17 AM 15.8 °F 4.2 °F 13.8 °F 92% 29.65 in 10.0 mi South 9.2 mph - N/A   Mostly Cloudy
3:36 AM 15.4 °F 5.6 °F 13.3 °F 91% 29.64 in 10.0 mi SSW 6.9 mph - N/A   Scattered Clouds
3:57 AM 14.9 °F 6.1 °F 12.9 °F 92% 29.64 in 10.0 mi SSW 5.8 mph - N/A   Mostly Cloudy
4:17 AM 14.9 °F 6.1 °F 13.1 °F 93% 29.64 in 10.0 mi South 5.8 mph - N/A   Overcast
4:36 AM 15.4 °F 6.8 °F 13.5 °F 92% 29.63 in 10.0 mi South 5.8 mph - N/A   Overcast
4:57 AM 15.1 °F 6.4 °F 13.1 °F 92% 29.63 in 10.0 mi South 5.8 mph - N/A   Overcast
5:16 AM 15.3 °F 6.6 °F 13.1 °F 91% 29.63 in 10.0 mi South 5.8 mph - N/A   Overcast
5:37 AM 15.3 °F 6.6 °F 13.5 °F 93% 29.63 in 10.0 mi South 5.8 mph - N/A   Overcast
5:57 AM 14.9 °F 5.0 °F 13.1 °F 93% 29.62 in 10.0 mi South 6.9 mph - N/A   Overcast
7:55 AM 14.0 °F 3.9 °F 12.2 °F 93% 29.61 in 10.0 mi SSW 6.9 mph - N/A   Mostly Cloudy
10:50 AM 21.2 °F - 17.6 °F 86% 29.60 in 10.0 mi Calm Calm - N/A   Mostly Cloudy
11:50 AM 26.6 °F 20.0 °F 21.2 °F 80% 29.60 in 10.0 mi South 5.8 mph - N/A   Overcast
12:50 PM 32.0 °F 27.5 °F 24.8 °F 75% 29.58 in 10.0 mi South 4.6 mph - N/A   Scattered Clouds
1:50 PM 33.8 °F 29.6 °F 24.8 °F 70% 29.58 in 10.0 mi SSW 4.6 mph - N/A   Overcast
2:50 PM 35.6 °F 29.9 °F 24.8 °F 65% 29.57 in 10.0 mi SW 6.9 mph - N/A   Overcast
4:50 PM 35.6 °F 29.2 °F 24.8 °F 65% 29.57 in 10.0 mi SSW 8.1 mph - N/A   Scattered Clouds
5:50 PM 35.6 °F 31.7 °F 24.8 °F 65% 29.57 in 10.0 mi SSW 4.6 mph - N/A   Scattered Clouds
6:50 PM 32.0 °F - 24.8 °F 75% 29.58 in 10.0 mi Calm Calm - N/A   Scattered Clouds
7:50 PM 26.6 °F 22.6 °F 23.0 °F 86% 29.59 in 10.0 mi NE 3.5 mph - N/A   Scattered Clouds
8:50 PM 28.4 °F - 24.8 °F 86% 29.59 in 10.0 mi Calm Calm - N/A   Clear
9:48 PM 26.6 °F 22.6 °F 24.8 °F 93% 29.60 in 10.0 mi North 3.5 mph - N/A   Clear
10:17 PM 26.2 °F 22.1 °F 24.6 °F 94% 29.59 in 10.0 mi NNE 3.5 mph - N/A   Scattered Clouds
10:37 PM 26.1 °F 20.5 °F 24.8 °F 95% 29.59 in 7.0 mi NNE 4.6 mph - N/A   Overcast
10:57 PM 25.7 °F 20.1 °F 24.4 °F 95% 29.59 in 7.0 mi North 4.6 mph - N/A   Overcast
11:16 PM 26.1 °F 21.9 °F 24.8 °F 95% 29.58 in 7.0 mi NNE 3.5 mph - N/A   Overcast
11:37 PM 25.5 °F 19.9 °F 24.3 °F 95% 29.59 in 7.0 mi North 4.6 mph - N/A   Overcast
11:57 PM 25.7 °F - 23.9 °F 93% 29.59 in 10.0 mi Calm Calm - N/A   Overcast